Radiation Dose at Monitoring Post of Fukushima Daini Nuclear Power Station
Date,Time,MP-1(microSv/h),MP-2(microSv/h),MP-3(microSv/h),MP-4(microSv/h),MP-5(microSv/h),MP-6(microSv/h),MP-7(microSv/h),Wind Direction,Wind Velocity(m/s),Rain
2022/12/12,00:00,0.151,0.137,0.212,0.208,0.211,0.119,0.077,north-northwest,7.9,No
2022/12/12,00:10,0.152,0.137,0.212,0.209,0.211,0.120,0.078,northwest,8.1,No
2022/12/12,00:20,0.152,0.137,0.212,0.208,0.210,0.120,0.076,northwest,7.7,No
2022/12/12,00:30,0.151,0.136,0.213,0.208,0.211,0.120,0.076,north-northwest,7.8,No
2022/12/12,00:40,0.152,0.137,0.212,0.208,0.210,0.120,0.076,north-northwest,7.3,No
2022/12/12,00:50,0.151,0.137,0.212,0.208,0.210,0.120,0.077,north-northwest,7.0,No
2022/12/12,01:00,0.151,0.136,0.213,0.208,0.212,0.119,0.076,north-northwest,7.0,No
2022/12/12,01:10,0.152,0.137,0.212,0.208,0.210,0.120,0.076,north-northwest,6.7,No
2022/12/12,01:20,0.152,0.138,0.213,0.208,0.210,0.120,0.077,north-northwest,6.3,No
2022/12/12,01:30,0.152,0.136,0.212,0.209,0.211,0.119,0.077,northwest,6.5,No
2022/12/12,01:40,0.151,0.136,0.212,0.208,0.211,0.119,0.076,north-northwest,7.6,No
2022/12/12,01:50,0.152,0.137,0.211,0.209,0.210,0.119,0.076,north-northwest,7.7,No
2022/12/12,02:00,0.151,0.136,0.212,0.209,0.210,0.120,0.077,northwest,7.1,No
2022/12/12,02:10,0.151,0.137,0.212,0.209,0.210,0.120,0.076,northwest,7.8,No
2022/12/12,02:20,0.151,0.136,0.213,0.208,0.211,0.120,0.077,north-northwest,7.0,No
2022/12/12,02:30,0.152,0.136,0.213,0.208,0.210,0.120,0.076,northwest,7.3,No
2022/12/12,02:40,0.151,0.137,0.212,0.208,0.211,0.121,0.076,northwest,7.9,No
2022/12/12,02:50,0.151,0.136,0.213,0.208,0.210,0.120,0.077,north-northwest,7.3,No
2022/12/12,03:00,0.151,0.136,0.212,0.209,0.211,0.120,0.076,north-northwest,7.7,No
2022/12/12,03:10,0.151,0.136,0.213,0.209,0.211,0.120,0.076,north-northwest,7.3,No
2022/12/12,03:20,0.152,0.136,0.213,0.208,0.211,0.119,0.076,north-northwest,7.8,No
2022/12/12,03:30,0.152,0.136,0.212,0.208,0.211,0.120,0.077,north-northwest,8.4,No
2022/12/12,03:40,0.151,0.136,0.212,0.208,0.210,0.119,0.076,north-northwest,8.8,No
2022/12/12,03:50,0.151,0.137,0.212,0.209,0.210,0.119,0.076,north-northwest,9.0,No
2022/12/12,04:00,0.151,0.136,0.212,0.208,0.211,0.119,0.076,north-northwest,8.1,No
2022/12/12,04:10,0.151,0.136,0.212,0.208,0.211,0.120,0.076,north-northwest,8.4,No
2022/12/12,04:20,0.150,0.137,0.214,0.208,0.210,0.119,0.076,north-northwest,8.5,No
2022/12/12,04:30,0.151,0.137,0.213,0.208,0.211,0.119,0.076,north-northwest,9.5,No
2022/12/12,04:40,0.151,0.137,0.212,0.208,0.212,0.119,0.076,north-northwest,9.0,No
2022/12/12,04:50,0.151,0.137,0.213,0.208,0.211,0.120,0.077,north-northwest,8.5,No
2022/12/12,05:00,0.151,0.138,0.212,0.208,0.210,0.120,0.076,north-northwest,8.1,No
2022/12/12,05:10,0.151,0.137,0.213,0.208,0.211,0.120,0.076,north-northwest,6.7,No
2022/12/12,05:20,0.150,0.136,0.213,0.209,0.210,0.120,0.077,north-northwest,7.0,No
2022/12/12,05:30,0.152,0.135,0.213,0.208,0.211,0.120,0.076,north-northwest,6.0,No
2022/12/12,05:40,0.151,0.136,0.213,0.207,0.210,0.120,0.076,north-northwest,6.6,No
2022/12/12,05:50,0.152,0.137,0.214,0.209,0.210,0.119,0.077,north-northwest,7.0,No
2022/12/12,06:00,0.152,0.137,0.212,0.208,0.210,0.120,0.076,north-northwest,6.4,No
2022/12/12,06:10,0.151,0.136,0.213,0.209,0.210,0.120,0.077,north-northwest,7.3,No
2022/12/12,06:20,0.150,0.136,0.212,0.209,0.211,0.120,0.076,north-northwest,7.6,No
2022/12/12,06:30,0.152,0.138,0.212,0.207,0.210,0.119,0.076,north-northwest,7.3,No
2022/12/12,06:40,0.152,0.136,0.212,0.208,0.209,0.120,0.076,northwest,7.4,No
2022/12/12,06:50,0.151,0.136,0.213,0.208,0.210,0.119,0.077,northwest,7.1,No
2022/12/12,07:00,0.151,0.137,0.213,0.208,0.210,0.120,0.075,northwest,7.5,No
2022/12/12,07:10,0.152,0.136,0.212,0.208,0.210,0.119,0.077,north-northwest,7.7,No
2022/12/12,07:20,0.152,0.137,0.212,0.208,0.210,0.120,0.076,northwest,7.3,No
2022/12/12,07:30,0.151,0.136,0.212,0.208,0.209,0.120,0.076,northwest,7.3,No
2022/12/12,07:40,0.152,0.136,0.212,0.208,0.210,0.120,0.077,northwest,7.9,No
2022/12/12,07:50,0.151,0.137,0.211,0.207,0.212,0.120,0.075,northwest,8.2,No
2022/12/12,08:00,0.152,0.136,0.213,0.207,0.211,0.119,0.076,northwest,7.3,No
2022/12/12,08:10,0.151,0.137,0.213,0.208,0.210,0.120,0.076,northwest,7.4,No
2022/12/12,08:20,0.152,0.136,0.212,0.207,0.211,0.120,0.076,northwest,7.7,No
2022/12/12,08:30,0.152,0.137,0.212,0.207,0.211,0.119,0.076,north-northwest,7.5,No
2022/12/12,08:40,0.152,0.137,0.213,0.207,0.212,0.119,0.076,north-northwest,7.0,No
2022/12/12,08:50,0.152,0.137,0.212,0.207,0.210,0.120,0.075,north-northwest,7.0,No
2022/12/12,09:00,0.151,0.136,0.213,0.208,0.211,0.120,0.076,north-northwest,6.8,No
2022/12/12,09:10,0.152,0.136,0.213,0.208,0.210,0.119,0.076,north-northwest,6.7,No
2022/12/12,09:20,0.151,0.137,0.213,0.207,0.210,0.119,0.076,north-northwest,8.1,No
2022/12/12,09:30,0.151,0.137,0.212,0.208,0.210,0.120,0.076,north-northwest,6.1,No
2022/12/12,09:40,0.151,0.136,0.212,0.208,0.210,0.119,0.076,north-northwest,4.8,No
2022/12/12,09:50,0.152,0.137,0.212,0.207,0.210,0.119,0.076,north-northwest,5.7,No
2022/12/12,10:00,0.153,0.136,0.213,0.208,0.210,0.120,0.076,north-northwest,6.7,No
2022/12/12,10:10,0.151,0.136,0.212,0.208,0.210,0.119,0.077,north-northwest,5.9,No
2022/12/12,10:20,0.150,0.135,0.212,0.207,0.211,0.120,0.076,north-northwest,5.5,No
2022/12/12,10:30,0.152,0.135,0.212,0.209,0.212,0.120,0.076,north-northwest,6.4,No
2022/12/12,10:40,0.151,0.136,0.211,0.208,0.210,0.120,0.076,north,5.5,No
2022/12/12,10:50,0.152,0.136,0.211,0.209,0.211,0.119,0.076,north,5.1,No
2022/12/12,11:00,0.151,0.136,0.212,0.208,0.209,0.120,0.076,north-northwest,4.8,No
2022/12/12,11:10,0.151,0.137,0.212,0.208,0.211,0.120,0.077,north,5.4,No
2022/12/12,11:20,0.150,0.136,0.212,0.208,0.210,0.119,0.076,north,5.1,No
2022/12/12,11:30,0.151,0.136,0.212,0.209,0.210,0.120,0.077,north-northwest,5.5,No
2022/12/12,11:40,0.150,0.136,0.212,0.209,0.212,0.119,0.076,north,5.0,No
2022/12/12,11:50,0.151,0.137,0.214,0.209,0.211,0.119,0.076,north,5.5,No
2022/12/12,12:00,0.151,0.137,0.213,0.209,0.210,0.119,0.076,north,3.6,No
2022/12/12,12:10,0.151,0.136,0.212,0.208,0.211,0.120,0.076,north,3.9,No
2022/12/12,12:20,0.150,0.137,0.212,0.209,0.212,0.119,0.076,north-northeast,5.7,No
2022/12/12,12:30,0.151,0.136,0.212,0.208,0.211,0.120,0.076,north,4.5,No
2022/12/12,12:40,0.151,0.137,0.213,0.208,0.210,0.120,0.076,north-northeast,4.1,No
2022/12/12,12:50,0.152,0.136,0.212,0.209,0.211,0.120,0.076,north-northeast,4.3,No
2022/12/12,13:00,0.152,0.136,0.211,0.209,0.211,0.120,0.076,north,4.3,No
2022/12/12,13:10,0.151,0.137,0.213,0.208,0.212,0.119,0.077,north,4.9,No
2022/12/12,13:20,0.151,0.137,0.213,0.208,0.211,0.119,0.076,north,2.4,No
2022/12/12,13:30,0.151,0.136,0.213,0.209,0.211,0.120,0.076,north-northeast,4.4,No
2022/12/12,13:40,0.152,0.135,0.213,0.209,0.212,0.119,0.076,north,3.9,No
2022/12/12,13:50,0.152,0.136,0.213,0.210,0.211,0.121,0.077,north,3.5,No
2022/12/12,14:00,0.151,0.137,0.214,0.208,0.212,0.120,0.077,north-northwest,3.6,No
2022/12/12,14:10,0.151,0.137,0.212,0.210,0.210,0.120,0.076,north,4.5,No
2022/12/12,14:20,0.152,0.136,0.211,0.209,0.210,0.121,0.076,north-northwest,2.5,No
2022/12/12,14:30,0.151,0.137,0.213,0.208,0.211,0.119,0.077,north-northeast,4.3,No
2022/12/12,14:40,0.152,0.138,0.213,0.209,0.210,0.120,0.076,north,3.7,No
2022/12/12,14:50,0.151,0.136,0.212,0.210,0.210,0.119,0.077,north-northwest,4.1,No
2022/12/12,15:00,0.152,0.137,0.212,0.208,0.211,0.118,0.076,north,3.7,No
2022/12/12,15:10,0.151,0.136,0.213,0.209,0.211,0.120,0.077,northeast,5.0,No
2022/12/12,15:20,0.152,0.135,0.212,0.209,0.211,0.119,0.077,north,2.7,No
2022/12/12,15:30,0.152,0.137,0.213,0.209,0.212,0.119,0.076,north-northwest,3.9,No
2022/12/12,15:40,0.151,0.137,0.212,0.210,0.210,0.119,0.077,north-northwest,4.0,No
2022/12/12,15:50,0.151,0.136,0.214,0.209,0.212,0.121,0.076,north-northwest,3.9,No
2022/12/12,16:00,0.151,0.136,0.212,0.210,0.211,0.120,0.076,north-northwest,3.3,No
2022/12/12,16:10,0.151,0.137,0.213,0.209,0.212,0.120,0.076,north-northwest,4.4,No
2022/12/12,16:20,0.151,0.137,0.213,0.209,0.211,0.120,0.076,northwest,5.3,No
2022/12/12,16:30,0.152,0.136,0.212,0.209,0.211,0.120,0.076,northwest,5.0,No
2022/12/12,16:40,0.151,0.136,0.213,0.208,0.212,0.120,0.075,northwest,6.0,No
2022/12/12,16:50,0.151,0.137,0.213,0.210,0.211,0.120,0.075,northwest,5.0,No
2022/12/12,17:00,0.152,0.137,0.213,0.209,0.212,0.120,0.076,north-northwest,4.6,No
2022/12/12,17:10,0.152,0.136,0.212,0.210,0.211,0.119,0.076,north-northwest,4.4,No
2022/12/12,17:20,0.152,0.136,0.212,0.209,0.210,0.120,0.077,north-northwest,4.8,No
2022/12/12,17:30,0.151,0.136,0.214,0.210,0.211,0.122,0.075,northwest,4.1,No
2022/12/12,17:40,0.152,0.136,0.213,0.209,0.211,0.120,0.076,northwest,4.3,No
2022/12/12,17:50,0.151,0.137,0.213,0.211,0.210,0.120,0.076,northwest,4.2,No
2022/12/12,18:00,0.151,0.138,0.213,0.209,0.211,0.120,0.076,northwest,2.8,No
2022/12/12,18:10,0.152,0.136,0.213,0.209,0.211,0.120,0.076,northwest,2.3,No
2022/12/12,18:20,0.152,0.137,0.213,0.209,0.211,0.120,0.076,west-northwest,2.6,No
2022/12/12,18:30,0.150,0.136,0.212,0.210,0.209,0.119,0.076,west-northwest,2.2,No
2022/12/12,18:40,0.151,0.136,0.212,0.208,0.211,0.120,0.076,west-northwest,2.0,No
2022/12/12,18:50,0.152,0.137,0.213,0.208,0.211,0.120,0.076,west-northwest,2.4,No
2022/12/12,19:00,0.151,0.136,0.212,0.209,0.210,0.121,0.076,west-northwest,2.5,No
2022/12/12,19:10,0.151,0.136,0.212,0.210,0.211,0.120,0.076,west-northwest,1.1,No
2022/12/12,19:20,0.153,0.136,0.213,0.208,0.212,0.120,0.077,west-northwest,2.0,No
2022/12/12,19:30,0.152,0.137,0.214,0.208,0.210,0.120,0.076,west-northwest,2.2,No
2022/12/12,19:40,0.152,0.137,0.213,0.209,0.211,0.121,0.076,west-northwest,1.2,No
2022/12/12,19:50,0.152,0.137,0.214,0.210,0.210,0.119,0.076,west,1.3,No
2022/12/12,20:00,0.153,0.137,0.214,0.209,0.211,0.120,0.077,west,1.3,No
2022/12/12,20:10,0.151,0.137,0.213,0.210,0.211,0.120,0.077,west,1.1,No
2022/12/12,20:20,0.151,0.138,0.212,0.209,0.211,0.121,0.076,west,1.2,No
2022/12/12,20:30,0.152,0.136,0.214,0.208,0.210,0.120,0.076,west,1.2,No
2022/12/12,20:40,0.151,0.137,0.213,0.209,0.211,0.120,0.076,-,CALM,No
2022/12/12,20:50,0.151,0.137,0.213,0.208,0.210,0.120,0.077,south,0.7,No
2022/12/12,21:00,0.152,0.136,0.213,0.210,0.212,0.120,0.077,-,CALM,No
2022/12/12,21:10,0.151,0.138,0.214,0.209,0.210,0.120,0.077,-,CALM,No
2022/12/12,21:20,0.151,0.138,0.214,0.209,0.211,0.120,0.077,west-southwest,1.6,No
2022/12/12,21:30,0.151,0.137,0.213,0.209,0.211,0.120,0.076,west,1.5,No
2022/12/12,21:40,0.152,0.137,0.213,0.210,0.212,0.120,0.077,west-northwest,2.0,No
2022/12/12,21:50,0.152,0.137,0.214,0.210,0.211,0.120,0.076,west-northwest,2.1,No
2022/12/12,22:00,0.151,0.138,0.214,0.209,0.211,0.121,0.076,west-northwest,2.2,No
2022/12/12,22:10,0.152,0.136,0.213,0.209,0.210,0.120,0.076,west-northwest,2.0,No
2022/12/12,22:20,0.151,0.136,0.213,0.209,0.211,0.120,0.076,west,1.8,No
2022/12/12,22:30,0.151,0.136,0.213,0.210,0.211,0.120,0.076,west,1.3,No
2022/12/12,22:40,0.152,0.137,0.214,0.208,0.211,0.120,0.077,west,0.9,No
2022/12/12,22:50,0.152,0.136,0.213,0.209,0.211,0.120,0.076,west-southwest,1.1,No
2022/12/12,23:00,0.151,0.136,0.212,0.210,0.210,0.120,0.076,west-southwest,2.1,No
2022/12/12,23:10,0.152,0.136,0.213,0.209,0.211,0.121,0.077,west,1.5,No
2022/12/12,23:20,0.152,0.136,0.213,0.209,0.211,0.121,0.076,south-southwest,1.1,No
2022/12/12,23:30,0.151,0.137,0.213,0.208,0.211,0.121,0.076,south-southwest,0.9,No
2022/12/12,23:40,0.151,0.138,0.213,0.210,0.211,0.121,0.076,west-southwest,1.3,No
2022/12/12,23:50,0.152,0.136,0.214,0.209,0.210,0.120,0.077,west-southwest,1.2,No
